Weather History for KPMP - September, 2012

Change the Weather History Date:

Tuesday, September 25, 2012

  Actual Average Record
Temperature  
Mean Temperature 78 °F -  
Max Temperature 82 °F 89 °F 95 °F (1980)
Min Temperature 73 °F 73 °F 68 °F (1961)
Cooling Degree Days 12    
Growing Degree Days 28 (Base 50)    
Moisture  
Dew Point 72 °F    
Average Humidity 83    
Maximum Humidity 97    
Minimum Humidity 62    
Precipitation  
Precipitation 0.08 in - - ()
Sea Level Pressure  
Sea Level Pressure 30.04 in    
Wind  
Wind Speed 6 mph (NNE)    
Max Wind Speed 13 mph    
Max Gust Speed -    
Visibility 10 miles    
Events Rain , Thunderstorm    
Averages and records for this station are not official NWS values.
T = Trace of Precipitation, MM = Missing Value Source: NWS Daily Summary

Daily Weather History Graph

Daily Weather History Graph

Search for Another Location

Airport or City:

Trip Planner

Search our weather history database for the weather conditions in past years. The results will help you decide how hot, cold, wet, or windy it might be!

Date:

Astronomy

Sep. 25, 2012 Rise Set
Actual Time 7:10 AM EDT 7:12 PM EDT
Civil Twilight 6:47 AM EDT 7:36 PM EDT
Nautical Twilight 6:20 AM EDT 8:02 PM EDT
Astronomical Twilight 5:53 AM EDT 8:29 PM EDT
Moon 4:17 PM EDT (9/25) 2:53 AM EDT (9/25)
Length of Visible Light 12h 48m
Length of Day
12h 02m
Waxing Gibbous, 80% of the Moon is Illuminated
Sep 25
Waxing Gibbous
Sep 29
Full
Oct 8
Last Quarter
Oct 15
New
Oct 21
First Quarter

Hourly Weather History & Observations

Time (EDT) Temp. Heat Index Dew Point Humidity Pressure Visibility Wind Dir Wind Speed Gust Speed Precip Events Conditions
12:53 AM 73.9 °F - 69.1 °F 85% 30.03 in 10.0 mi Calm Calm - N/A   Clear
1:53 AM 73.9 °F - 70.0 °F 87% 30.02 in 10.0 mi NNW 5.8 mph - N/A   Scattered Clouds
2:53 AM 73.0 °F - 70.0 °F 90% 30.01 in 10.0 mi NNW 6.9 mph - N/A   Partly Cloudy
3:53 AM 73.0 °F - 71.1 °F 93% 30.00 in 10.0 mi NNW 6.9 mph - 0.01 in Rain Light Rain
4:06 AM 73.4 °F - 71.6 °F 94% 30.00 in 10.0 mi NNW 4.6 mph - 0.00 in   Overcast
4:53 AM 73.0 °F - 72.0 °F 96% 30.00 in 10.0 mi Calm Calm - 0.03 in   Mostly Cloudy
5:53 AM 73.0 °F - 72.0 °F 96% 30.00 in 10.0 mi North 4.6 mph - N/A   Partly Cloudy
6:53 AM 73.0 °F - 72.0 °F 96% 30.01 in 10.0 mi Calm Calm - N/A   Scattered Clouds
7:53 AM 73.9 °F - 73.0 °F 97% 30.04 in 10.0 mi NNW 3.5 mph - N/A   Partly Cloudy
8:53 AM 75.9 °F - 73.9 °F 94% 30.05 in 10.0 mi NNW 3.5 mph - N/A   Mostly Cloudy
9:53 AM 79.0 °F - 73.0 °F 82% 30.06 in 10.0 mi NE 9.2 mph - N/A   Mostly Cloudy
10:53 AM 80.1 °F 84.2 °F 73.0 °F 79% 30.08 in 10.0 mi NE 12.7 mph - N/A   Mostly Cloudy
11:53 AM 80.1 °F 84.2 °F 73.0 °F 79% 30.08 in 10.0 mi NE 10.4 mph - N/A   Mostly Cloudy
12:53 PM 81.0 °F 85.2 °F 72.0 °F 74% 30.07 in 10.0 mi NNE 10.4 mph - N/A   Mostly Cloudy
1:53 PM 82.9 °F 89.4 °F 73.9 °F 74% 30.05 in 10.0 mi ENE 8.1 mph - N/A   Mostly Cloudy
3:53 PM 82.0 °F 87.9 °F 73.9 °F 76% 30.01 in 10.0 mi NE 8.1 mph - N/A   Clear
4:53 PM 81.0 °F 84.9 °F 71.1 °F 72% 30.02 in 10.0 mi ENE 9.2 mph - N/A   Partly Cloudy
5:35 PM 80.6 °F 85.4 °F 73.4 °F 79% 30.02 in 10.0 mi NE 10.4 mph - N/A   Overcast
5:46 PM 80.6 °F 85.4 °F 73.4 °F 79% 30.02 in 10.0 mi NE 10.4 mph - N/A   Mostly Cloudy
5:53 PM 80.1 °F 84.5 °F 73.9 °F 81% 30.03 in 9.0 mi NE 10.4 mph - 0.01 in Rain Light Rain
6:53 PM 79.0 °F - 73.9 °F 84% 30.04 in 10.0 mi NE 11.5 mph - 0.03 in   Mostly Cloudy
7:53 PM 79.0 °F - 73.9 °F 84% 30.05 in 10.0 mi NE 5.8 mph - 0.00 in Rain , Thunderstorm Light Rain
8:13 PM 78.8 °F - 73.4 °F 83% 30.05 in 10.0 mi NE 6.9 mph - 0.00 in Rain Light Rain
8:53 PM 79.0 °F - 68.0 °F 69% 30.05 in 10.0 mi NE 8.1 mph - 0.00 in   Scattered Clouds
9:53 PM 79.0 °F - 64.9 °F 62% 30.06 in 10.0 mi East 8.1 mph - N/A   Clear
11:53 PM 78.1 °F - 64.9 °F 64% 30.08 in 10.0 mi ENE 5.8 mph - N/A   Clear